Main page
METAR-TAF:

METAR-TAF

Airports :

Ormond Beach Municipal Airport

Ormond Beach, Florida, United States

latitude: 29-18-04N, longitude: 081-06-49W, elevation: 30 ft

Current weather observation

The report was made 8 hours and 48 minutes ago, at 22:50 UTC
Wind 12 mph from the East with gusts up to 17 mph
Temperature 75°F
Humidity 65%
Pressure 30.15 in. Hg
Visibility: 10 miles
Scattered clouds at a height of 4000 ft

METAR: KOMN 172250Z 10010G15KT 10SM SCT040 24/17 A3015 RMK LAST

Time: 03:38 (07:38 UTC)


TAF: missing

Weather observations and forecasts of more than 4000 airports (METAR and TAF reports).

The available stations are represented by yellow and red dots on the map.

Hover mouse over dot to see the name of the station.

Then click to see weather observations and forecasts.

To change the map : click on the green buttons with a black cross to zoom in, on the green button with a dash to zoom out, or on the green arrows for adjacent maps.


METAR-TAF: